Regional Weather Roundup
Issued by NWS Green Bay, WI

Home | Current Version | Previous Version | Text Only | Print | Product List | Glossary On
Versions: 1 2 3 4 5 6 7 8 9 10 11 12 13 14 15 16 17 18 19 20 21 22 23 24 25 26 27 28 29 30 31 32 33 34 35 36 37 38 39 40 41 42 43 44 45 46 47 48 49 50
000
ASUS43 KGRB 041511
RWRGRB

NORTH-CENTRAL AND NORTHEAST WISCONSIN REGIONAL WEATHER ROUNDUP
NATIONAL WEATHER SERVICE GREEN BAY WI
1000 AM CDT FRI SEP 04 2015

WIZ005-009-010>012-018-019-041600-
NORTH CENTRAL WISCONSIN

CITY           SKY/WX    TMP DP  RH WIND       PRES   REMARKS
IRONWOOD       SUNNY     73  64  73 SE15G22   30.00F
MANITOWISH WTR SUNNY     70  65  83 SE7       30.06S
ARBOR VITAE    SUNNY     72  64  77 SE10      30.07F
EAGLE RIVER    SUNNY     72  60  67 SE5       30.09S
LAND O LAKES   SUNNY     73  61  65 SE8       30.10S
RHINELANDER    SUNNY     72  63  73 E12       30.08F
PHILLIPS       SUNNY     70  64  80 SE8       30.05S
ANTIGO         SUNNY     71  64  79 E8        30.08S
TOMAHAWK       SUNNY     68  66  95 E5        30.07S
MERRILL        SUNNY     71  65  81 SE8       30.07S
$$

WIZ013-073-041600-
NORTHEAST WISCONSIN

CITY           SKY/WX    TMP DP  RH WIND       PRES   REMARKS
IRON MOUNTAIN  SUNNY     74  60  61 SE5       30.06R
MARINETTE      MOSUNNY   70  61  73 NE8       30.04R
OCONTO         MOSUNNY   69  68  97 NE5       30.05R
$$

WIZ017-030-035>037-045-041600-
CENTRAL WISCONSIN

CITY           SKY/WX    TMP DP  RH WIND       PRES   REMARKS
MEDFORD        PTSUNNY   68  65  89 SE6       30.07R
WAUSAU         CLOUDY    68  64  87 SE8       30.05R
MOSINEE        CLOUDY    64  64 100 SE7       30.08R FOG
MARSHFIELD     CLOUDY    67  62  84 E7        30.07R HAZE
WISC RAPIDS    CLOUDY    67  63  87 E8        30.07R
STEVENS POINT  CLOUDY    64  64  97 E7        30.07R FOG
WAUPACA        CLOUDY    68  67  97 CALM      30.06R FOG
SHAWANO        NOT AVBL
CLINTONVILLE   CLOUDY    68  64  88 E6        30.05R
WAUTOMA        CLOUDY    69  66  90 E3        30.06R
$$

WIZ038-039-048-051-041600-
FOX VALLEY

CITY           SKY/WX    TMP DP  RH WIND       PRES   REMARKS
NWS GREEN BAY  CLOUDY    70  65  84 VRB5      30.05R
APPLETON       CLOUDY    66  66 100 VRB6      30.04R
OSHKOSH        CLOUDY    69  64  84 NE6       30.05R
FOND DU LAC    CLOUDY    70  65  84 NE6       30.05R
$$

WIZ022-050-052-041600-
EAST CENTRAL WISCONSIN

CITY           SKY/WX    TMP DP  RH WIND       PRES   REMARKS
EPHRAIM        CLOUDY    70  65  84 E8        30.04R
STURGEON BAY   PTSUNNY   70  64  83 N3        30.07R
MANITOWOC      CLOUDY    69  66  90 MISG      30.04R
SHEBOYGAN      CLOUDY    69  66  90 NE8       30.04R
$$

LMZ563-521-522-541>543-041600-
LAKESHORE

STATION/POSITION TIME  TEMP    WIND        PRES    VSBY  WAVE
                       AIR SEA DIR/SP/G                  HT/PER
                 (UTC) (F)     (DEG/KT/KT) (MB)    (MI)  (FT/S)
SHEBOYGAN LKSHOR 1500   60      10/  8/  9 1017.5R
KEWAUNEE LKSHORE 1400   67      20/  4/  9 1016.0R
ALGOMA MARINA    1444           70/  8/  9   N/A
NORTHPORT PIER   1400   68     100/  5/  7 1016.9R
N MID LAKE BUOY  1450   67 66  110/  8/ 10 1016.8R         2/ 4
S GREEN BAY BUOY 1400   65 66  340/  4/  6 1018.6R
SISTER BAY LKSHO 1411   75     100/ 10/ 14   N/A
CHAMBERS ISLAND  1400   69     360/  6/  6 1017.3R
MENOMINEE LKSHOR 1400   66      10/  7/ 10 1015.9R
$$



USA.gov is the U.S. government's official web portal to all federal, state and local government web resources and services.